| time (UTC) | temp F | wind direction | speed MPH | gust MPH | rain 1hr in | rain 24hr in | rain mn in | humidity % | barometer mb |
| 20260508202822 | 70 | 16 | 1.0 | 10.0 | 0.00 | 0.00 | 0.00 | 35 | 1011.3 |
| 20260508202525 | 69 | 55 | 1.0 | 11.0 | 0.00 | 0.00 | 0.00 | 34 | 1011.7 |
| 20260508202327 | 70 | 190 | 2.0 | 10.0 | 0.00 | 0.00 | 0.00 | 36 | 1011.4 |
| 20260508202025 | 69 | 0 | 1.0 | 7.0 | 0.00 | 0.00 | 0.00 | 34 | 1011.8 |
| 20260508201830 | 70 | 204 | 3.0 | 7.0 | 0.00 | 0.00 | 0.00 | 34 | 1011.4 |
| 20260508201541 | 69 | 0 | 1.0 | 7.0 | 0.00 | 0.00 | 0.00 | 34 | 1011.8 |
| 20260508201318 | 70 | 200 | 2.0 | 7.0 | 0.00 | 0.00 | 0.00 | 35 | 1011.4 |
| 20260508201025 | 69 | 0 | 0.0 | 7.0 | 0.00 | 0.00 | 0.00 | 35 | 1011.8 |
| 20260508200828 | 69 | 314 | 1.0 | 7.0 | 0.00 | 0.00 | 0.00 | 34 | 1011.6 |
| 20260508200525 | 69 | 0 | 0.0 | 8.0 | 0.00 | 0.00 | 0.00 | 32 | 1011.8 |
| 20260508200353 | 69 | 163 | 0.0 | 7.0 | 0.00 | 0.00 | 0.00 | 34 | 1011.6 |
| 20260508200047 | 69 | 0 | 0.0 | 10.0 | 0.00 | 0.00 | 0.00 | 34 | 1011.9 |
| 20260508195837 | 69 | 12 | 2.0 | 9.0 | 0.00 | 0.00 | 0.00 | 33 | 1011.7 |
| 20260508195525 | 69 | 275 | 2.0 | 10.0 | 0.00 | 0.00 | 0.00 | 33 | 1011.9 |
| 20260508195323 | 69 | 296 | 3.0 | 9.0 | 0.00 | 0.00 | 0.00 | 36 | 1011.7 |
| 20260508195030 | 69 | 0 | 1.0 | 10.0 | 0.00 | 0.00 | 0.00 | 33 | 1012.0 |
| 20260508194850 | 69 | 200 | 1.0 | 9.0 | 0.00 | 0.00 | 0.00 | 35 | 1011.7 |
| 20260508194545 | 69 | 0 | 1.0 | 10.0 | 0.00 | 0.00 | 0.00 | 34 | 1012.0 |
| 20260508194337 | 69 | 169 | 1.0 | 9.0 | 0.00 | 0.00 | 0.00 | 35 | 1011.9 |
| 20260508194026 | 69 | 241 | 3.0 | 10.0 | 0.00 | 0.00 | 0.00 | 32 | 1012.2 |
| 20260508193821 | 70 | 215 | 0.0 | 9.0 | 0.00 | 0.00 | 0.00 | 36 | 1011.9 |
| 20260508193527 | 69 | 218 | 2.0 | 9.0 | 0.00 | 0.00 | 0.00 | 35 | 1012.1 |
| 20260508193326 | 70 | 2 | 4.0 | 9.0 | 0.00 | 0.00 | 0.00 | 35 | 1011.9 |
| 20260508193042 | 69 | 38 | 2.0 | 9.0 | 0.00 | 0.00 | 0.00 | 37 | 1012.2 |
| 20260508192830 | 70 | 14 | 2.0 | 7.0 | 0.00 | 0.00 | 0.00 | 34 | 1012.0 |
| 20260508192526 | 69 | 37 | 0.0 | 9.0 | 0.00 | 0.00 | 0.00 | 33 | 1012.3 |
| 20260508192317 | 70 | 213 | 1.0 | 8.0 | 0.00 | 0.00 | 0.00 | 32 | 1012.2 |
| 20260508192026 | 69 | 0 | 3.0 | 9.0 | 0.00 | 0.00 | 0.00 | 34 | 1012.5 |
| 20260508191825 | 70 | 267 | 3.0 | 8.0 | 0.00 | 0.00 | 0.00 | 35 | 1012.3 |
| 20260508191539 | 69 | 0 | 1.0 | 10.0 | 0.00 | 0.00 | 0.00 | 34 | 1012.5 |
| 20260508191329 | 69 | 179 | 1.0 | 7.0 | 0.00 | 0.00 | 0.00 | 35 | 1012.2 |
| 20260508191026 | 69 | 260 | 0.0 | 10.0 | 0.00 | 0.00 | 0.00 | 34 | 1012.6 |
| 20260508190816 | 69 | 213 | 2.0 | 9.0 | 0.00 | 0.00 | 0.00 | 36 | 1012.3 |
| 20260508190526 | 68 | 298 | 1.0 | 10.0 | 0.00 | 0.00 | 0.00 | 38 | 1012.6 |
| 20260508190325 | 69 | 188 | 1.0 | 7.0 | 0.00 | 0.00 | 0.00 | 36 | 1012.4 |
| 20260508190052 | 68 | 179 | 2.0 | 7.0 | 0.00 | 0.00 | 0.00 | 34 | 1012.7 |
| 20260508185813 | 69 | 272 | 1.0 | 6.0 | 0.00 | 0.00 | 0.00 | 37 | 1012.5 |
| 20260508185526 | 68 | 292 | 1.0 | 10.0 | 0.00 | 0.00 | 0.00 | 35 | 1012.8 |
| 20260508185319 | 69 | 241 | 1.0 | 9.0 | 0.00 | 0.00 | 0.00 | 34 | 1012.5 |
| 20260508185025 | 68 | 0 | 1.0 | 10.0 | 0.00 | 0.00 | 0.00 | 34 | 1012.8 |
| 20260508184823 | 69 | 339 | 0.0 | 9.0 | 0.00 | 0.00 | 0.00 | 35 | 1012.7 |
| 20260508184558 | 68 | 0 | 2.0 | 10.0 | 0.00 | 0.00 | 0.00 | 34 | 1013.0 |
| 20260508184331 | 69 | 331 | 2.0 | 10.0 | 0.00 | 0.00 | 0.00 | 35 | 1012.7 |
| 20260508184026 | 68 | 199 | 2.0 | 10.0 | 0.00 | 0.00 | 0.00 | 37 | 1012.9 |
| 20260508183817 | 69 | 215 | 3.0 | 10.0 | 0.00 | 0.00 | 0.00 | 36 | 1012.7 |
| 20260508183526 | 68 | 20 | 2.0 | 9.0 | 0.00 | 0.00 | 0.00 | 37 | 1012.9 |
| 20260508183321 | 69 | 235 | 1.0 | 6.0 | 0.00 | 0.00 | 0.00 | 34 | 1012.7 |
| 20260508183044 | 68 | 39 | 1.0 | 9.0 | 0.00 | 0.00 | 0.00 | 36 | 1013.0 |
| 20260508182825 | 69 | 273 | 3.0 | 8.0 | 0.00 | 0.00 | 0.00 | 35 | 1012.7 |
| 20260508182526 | 68 | 0 | 0.0 | 9.0 | 0.00 | 0.00 | 0.00 | 33 | 1012.9 |
| 20260508182332 | 69 | 251 | 1.0 | 8.0 | 0.00 | 0.00 | 0.00 | 35 | 1012.7 |
| 20260508182026 | 68 | 234 | 1.0 | 9.0 | 0.00 | 0.00 | 0.00 | 36 | 1013.0 |
| 20260508181819 | 68 | 281 | 1.0 | 8.0 | 0.00 | 0.00 | 0.00 | 36 | 1012.8 |
| 20260508181554 | 68 | 246 | 1.0 | 9.0 | 0.00 | 0.00 | 0.00 | 37 | 1013.0 |
| 20260508181327 | 68 | 257 | 2.0 | 8.0 | 0.00 | 0.00 | 0.00 | 41 | 1012.7 |
| 20260508181027 | 67 | 43 | 1.0 | 9.0 | 0.00 | 0.00 | 0.00 | 38 | 1013.0 |
| 20260508180819 | 68 | 224 | 1.0 | 8.0 | 0.00 | 0.00 | 0.00 | 37 | 1012.8 |
| 20260508180526 | 68 | 239 | 2.0 | 8.0 | 0.00 | 0.00 | 0.00 | 36 | 1013.2 |
| 20260508180325 | 68 | 201 | 1.0 | 7.0 | 0.00 | 0.00 | 0.00 | 38 | 1013.0 |
| 20260508180039 | 68 | 31 | 0.0 | 8.0 | 0.00 | 0.00 | 0.00 | 37 | 1013.3 |
| 20260508175830 | 68 | 234 | 1.0 | 7.0 | 0.00 | 0.00 | 0.00 | 37 | 1013.0 |
| 20260508175526 | 68 | 217 | 1.0 | 8.0 | 0.00 | 0.00 | 0.00 | 37 | 1013.3 |
| 20260508175339 | 68 | 201 | 1.0 | 8.0 | 0.00 | 0.00 | 0.00 | 38 | 1013.0 |
| 20260508175029 | 68 | 0 | 1.0 | 8.0 | 0.00 | 0.00 | 0.00 | 39 | 1013.4 |
| 20260508174826 | 68 | 9 | 1.0 | 6.0 | 0.00 | 0.00 | 0.00 | 37 | 1013.0 |
| 20260508174545 | 68 | 34 | 2.0 | 6.0 | 0.00 | 0.00 | 0.00 | 37 | 1013.4 |
| 20260508174333 | 69 | 246 | 1.0 | 5.0 | 0.00 | 0.00 | 0.00 | 35 | 1013.1 |
| 20260508174025 | 68 | 52 | 0.0 | 11.0 | 0.00 | 0.00 | 0.00 | 41 | 1013.4 |
| 20260508173820 | 68 | 27 | 0.0 | 10.0 | 0.00 | 0.00 | 0.00 | 38 | 1013.1 |
| 20260508173526 | 68 | 346 | 1.0 | 11.0 | 0.00 | 0.00 | 0.00 | 35 | 1013.6 |
| 20260508173325 | 68 | 187 | 3.0 | 10.0 | 0.00 | 0.00 | 0.00 | 37 | 1013.3 |
| 20260508173047 | 68 | 0 | 2.0 | 11.0 | 0.00 | 0.00 | 0.00 | 38 | 1013.7 |
| 20260508172831 | 68 | 319 | 2.0 | 9.0 | 0.00 | 0.00 | 0.00 | 36 | 1013.4 |
| 20260508172525 | 68 | 258 | 1.0 | 9.0 | 0.00 | 0.00 | 0.00 | 36 | 1013.8 |
| 20260508172316 | 69 | 209 | 2.0 | 9.0 | 0.00 | 0.00 | 0.00 | 37 | 1013.4 |
| 20260508172025 | 68 | 224 | 0.0 | 9.0 | 0.00 | 0.00 | 0.00 | 39 | 1013.9 |
| 20260508171824 | 68 | 88 | 2.0 | 8.0 | 0.00 | 0.00 | 0.00 | 45 | 1013.6 |
| 20260508171541 | 68 | 229 | 0.0 | 10.0 | 0.00 | 0.00 | 0.00 | 36 | 1014.0 |
| 20260508171329 | 69 | 180 | 1.0 | 9.0 | 0.00 | 0.00 | 0.00 | 40 | 1013.6 |
| 20260508171026 | 68 | 234 | 1.0 | 10.0 | 0.00 | 0.00 | 0.00 | 37 | 1014.0 |
| 20260508170817 | 68 | 291 | 1.0 | 9.0 | 0.00 | 0.00 | 0.00 | 37 | 1013.7 |
| 20260508170526 | 68 | 263 | 2.0 | 11.0 | 0.00 | 0.00 | 0.00 | 36 | 1014.1 |
| 20260508170327 | 68 | 8 | 1.0 | 10.0 | 0.00 | 0.00 | 0.00 | 38 | 1013.8 |
| 20260508170042 | 67 | 0 | 1.0 | 11.0 | 0.00 | 0.00 | 0.00 | 38 | 1014.1 |
| 20260508165833 | 68 | 200 | 3.0 | 10.0 | 0.00 | 0.00 | 0.00 | 38 | 1013.8 |
| 20260508165526 | 67 | 0 | 1.0 | 9.0 | 0.00 | 0.00 | 0.00 | 37 | 1014.1 |
| 20260508165318 | 68 | 183 | 0.0 | 6.0 | 0.00 | 0.00 | 0.00 | 36 | 1013.8 |
| 20260508165026 | 68 | 244 | 1.0 | 7.0 | 0.00 | 0.00 | 0.00 | 35 | 1014.2 |
| 20260508164823 | 69 | 144 | 1.0 | 7.0 | 0.00 | 0.00 | 0.00 | 35 | 1013.9 |
| 20260508164545 | 69 | 259 | 0.0 | 11.0 | 0.00 | 0.00 | 0.00 | 38 | 1014.3 |
| 20260508164320 | 69 | 17 | 1.0 | 11.0 | 0.00 | 0.00 | 0.00 | 43 | 1013.9 |
| 20260508164026 | 68 | 8 | 2.0 | 11.0 | 0.00 | 0.00 | 0.00 | 39 | 1014.2 |
| 20260508163825 | 69 | 348 | 2.0 | 11.0 | 0.00 | 0.00 | 0.00 | 38 | 1013.9 |
| 20260508163529 | 68 | 0 | 2.0 | 11.0 | 0.00 | 0.00 | 0.00 | 38 | 1014.4 |
| 20260508163329 | 69 | 261 | 1.0 | 10.0 | 0.00 | 0.00 | 0.00 | 38 | 1014.0 |
| 20260508163045 | 68 | 0 | 1.0 | 11.0 | 0.00 | 0.00 | 0.00 | 41 | 1014.4 |
| 20260508162821 | 68 | 38 | 1.0 | 10.0 | 0.00 | 0.00 | 0.00 | 38 | 1014.0 |
| 20260508162526 | 68 | 0 | 0.0 | 11.0 | 0.00 | 0.00 | 0.00 | 39 | 1014.5 |
| 20260508162326 | 68 | 200 | 0.0 | 10.0 | 0.00 | 0.00 | 0.00 | 39 | 1014.1 |
| 20260508162029 | 67 | 243 | 1.0 | 7.0 | 0.00 | 0.00 | 0.00 | 42 | 1014.5 |
| 20260508161850 | 67 | 327 | 1.0 | 6.0 | 0.00 | 0.00 | 0.00 | 42 | 1014.2 |
| 20260508161549 | 67 | 218 | 0.0 | 7.0 | 0.00 | 0.00 | 0.00 | 37 | 1014.6 |
| 20260508161355 | 68 | 194 | 1.0 | 6.0 | 0.00 | 0.00 | 0.00 | 37 | 1014.4 |
| 20260508161026 | 67 | 0 | 1.0 | 7.0 | 0.00 | 0.00 | 0.00 | 37 | 1014.7 |
| 20260508160840 | 68 | 348 | 2.0 | 6.0 | 0.00 | 0.00 | 0.00 | 45 | 1014.3 |
| 20260508160525 | 67 | 0 | 1.0 | 15.0 | 0.00 | 0.00 | 0.00 | 44 | 1014.7 |
| 20260508160322 | 67 | 240 | 1.0 | 15.0 | 0.00 | 0.00 | 0.00 | 38 | 1014.4 |
| 20260508160044 | 67 | 297 | 1.0 | 15.0 | 0.00 | 0.00 | 0.00 | 40 | 1014.7 |
| 20260508155827 | 67 | 14 | 2.0 | 15.0 | 0.00 | 0.00 | 0.00 | 39 | 1014.5 |
| 20260508155525 | 67 | 282 | 0.0 | 7.0 | 0.00 | 0.00 | 0.00 | 40 | 1014.8 |
| 20260508155331 | 67 | 215 | 2.0 | 6.0 | 0.00 | 0.00 | 0.00 | 38 | 1014.5 |
| 20260508155025 | 67 | 0 | 1.0 | 7.0 | 0.00 | 0.00 | 0.00 | 39 | 1014.7 |
| 20260508154815 | 67 | 3 | 1.0 | 6.0 | 0.00 | 0.00 | 0.00 | 44 | 1014.5 |
| 20260508154544 | 66 | 331 | 1.0 | 14.0 | 0.00 | 0.00 | 0.00 | 38 | 1014.8 |
| 20260508154322 | 67 | 266 | 1.0 | 10.0 | 0.00 | 0.00 | 0.00 | 41 | 1014.6 |
| 20260508154026 | 66 | 0 | 1.0 | 14.0 | 0.00 | 0.00 | 0.00 | 41 | 1014.9 |
| 20260508153827 | 66 | 235 | 1.0 | 14.0 | 0.00 | 0.00 | 0.00 | 39 | 1014.7 |
| 20260508153526 | 66 | 0 | 4.0 | 14.0 | 0.00 | 0.00 | 0.00 | 40 | 1014.9 |
| 20260508153350 | 66 | 7 | 4.0 | 11.0 | 0.00 | 0.00 | 0.00 | 41 | 1014.8 |
| 20260508153040 | 65 | 43 | 1.0 | 17.0 | 0.00 | 0.00 | 0.00 | 40 | 1015.1 |
| 20260508152813 | 66 | 9 | 1.0 | 17.0 | 0.00 | 0.00 | 0.00 | 41 | 1014.9 |
| 20260508152526 | 65 | 0 | 0.0 | 17.0 | 0.00 | 0.00 | 0.00 | 41 | 1015.0 |
| 20260508152320 | 65 | 350 | 3.0 | 17.0 | 0.00 | 0.00 | 0.00 | 44 | 1014.9 |
| 20260508152027 | 64 | 40 | 0.0 | 9.0 | 0.00 | 0.00 | 0.00 | 43 | 1015.2 |
| 20260508151828 | 65 | 237 | 1.0 | 8.0 | 0.00 | 0.00 | 0.00 | 42 | 1015.0 |
| 20260508151538 | 64 | 0 | 0.0 | 9.0 | 0.00 | 0.00 | 0.00 | 40 | 1015.2 |
| 20260508151336 | 65 | 350 | 2.0 | 8.0 | 0.00 | 0.00 | 0.00 | 39 | 1015.0 |
| 20260508151026 | 64 | 160 | 0.0 | 10.0 | 0.00 | 0.00 | 0.00 | 41 | 1015.3 |
| 20260508150824 | 65 | 19 | 1.0 | 9.0 | 0.00 | 0.00 | 0.00 | 42 | 1015.0 |
| 20260508150529 | 64 | 0 | 0.0 | 10.0 | 0.00 | 0.00 | 0.00 | 41 | 1015.2 |
| 20260508150332 | 64 | 22 | 1.0 | 9.0 | 0.00 | 0.00 | 0.00 | 43 | 1015.0 |
| 20260508150052 | 64 | 223 | 1.0 | 9.0 | 0.00 | 0.00 | 0.00 | 44 | 1015.3 |
| 20260508145816 | 64 | 84 | 0.0 | 9.0 | 0.00 | 0.00 | 0.00 | 48 | 1015.0 |
| 20260508145526 | 63 | 0 | 1.0 | 9.0 | 0.00 | 0.00 | 0.00 | 42 | 1015.3 |
| 20260508145321 | 63 | 15 | 4.0 | 9.0 | 0.00 | 0.00 | 0.00 | 43 | 1015.2 |
| 20260508145025 | 62 | 0 | 1.0 | 8.0 | 0.00 | 0.00 | 0.00 | 43 | 1015.4 |
| 20260508144825 | 62 | 296 | 1.0 | 7.0 | 0.00 | 0.00 | 0.00 | 43 | 1015.3 |
| 20260508144601 | 62 | 0 | 1.0 | 8.0 | 0.00 | 0.00 | 0.00 | 42 | 1015.4 |
| 20260508144312 | 62 | 291 | 1.0 | 7.0 | 0.00 | 0.00 | 0.00 | 45 | 1015.3 |
| 20260508144025 | 61 | 0 | 0.0 | 7.0 | 0.00 | 0.00 | 0.00 | 45 | 1015.4 |
| 20260508143820 | 62 | 225 | 1.0 | 6.0 | 0.00 | 0.00 | 0.00 | 45 | 1015.4 |
| 20260508143526 | 61 | 0 | 1.0 | 7.0 | 0.00 | 0.00 | 0.00 | 46 | 1015.5 |
| 20260508143324 | 61 | 300 | 2.0 | 7.0 | 0.00 | 0.00 | 0.00 | 46 | 1015.4 |
| 20260508143041 | 60 | 0 | 0.0 | 6.0 | 0.00 | 0.00 | 0.00 | 51 | 1015.5 |
| 20260508142815 | 61 | 181 | 1.0 | 6.0 | 0.00 | 0.00 | 0.00 | 46 | 1015.3 |
| 20260508142528 | 60 | 0 | 0.0 | 6.0 | 0.00 | 0.00 | 0.00 | 46 | 1015.6 |
| 20260508142323 | 60 | 196 | 0.0 | 6.0 | 0.00 | 0.00 | 0.00 | 46 | 1015.4 |
| 20260508142026 | 60 | 0 | 1.0 | 6.0 | 0.00 | 0.00 | 0.00 | 49 | 1015.6 |
| 20260508141830 | 60 | 257 | 1.0 | 3.0 | 0.00 | 0.00 | 0.00 | 50 | 1015.4 |
| 20260508141550 | 59 | 0 | 0.0 | 10.0 | 0.00 | 0.00 | 0.00 | 49 | 1015.6 |
| 20260508141335 | 59 | 21 | 0.0 | 9.0 | 0.00 | 0.00 | 0.00 | 48 | 1015.4 |
| 20260508141026 | 59 | 0 | 1.0 | 10.0 | 0.00 | 0.00 | 0.00 | 51 | 1015.7 |
| 20260508140818 | 59 | 195 | 1.0 | 9.0 | 0.00 | 0.00 | 0.00 | 49 | 1015.4 |
| 20260508140527 | 58 | 0 | 1.0 | 10.0 | 0.00 | 0.00 | 0.00 | 48 | 1015.7 |
| 20260508140323 | 59 | 199 | 1.0 | 6.0 | 0.00 | 0.00 | 0.00 | 50 | 1015.4 |
| 20260508140046 | 58 | 216 | 0.0 | 7.0 | 0.00 | 0.00 | 0.00 | 51 | 1015.8 |
| 20260508135828 | 58 | 206 | 1.0 | 6.0 | 0.00 | 0.00 | 0.00 | 52 | 1015.4 |
| 20260508135529 | 58 | 0 | 0.0 | 7.0 | 0.00 | 0.00 | 0.00 | 53 | 1015.7 |
| 20260508135332 | 58 | 234 | 1.0 | 3.0 | 0.00 | 0.00 | 0.00 | 53 | 1015.5 |
| 20260508135027 | 57 | 0 | 0.0 | 3.0 | 0.00 | 0.00 | 0.00 | 53 | 1015.8 |
| 20260508134817 | 58 | 185 | 0.0 | 3.0 | 0.00 | 0.00 | 0.00 | 56 | 1015.4 |
| 20260508134541 | 57 | 209 | 0.0 | 4.0 | 0.00 | 0.00 | 0.00 | 55 | 1015.8 |
| 20260508134324 | 57 | 185 | 0.0 | 4.0 | 0.00 | 0.00 | 0.00 | 58 | 1015.5 |
| 20260508134025 | 57 | 0 | 0.0 | 4.0 | 0.00 | 0.00 | 0.00 | 55 | 1015.9 |
| 20260508133828 | 57 | 296 | 1.0 | 4.0 | 0.00 | 0.00 | 0.00 | 56 | 1015.7 |
| 20260508133526 | 56 | 0 | 1.0 | 4.0 | 0.00 | 0.00 | 0.00 | 57 | 1015.9 |
| 20260508133337 | 57 | 208 | 1.0 | 4.0 | 0.00 | 0.00 | 0.00 | 55 | 1015.6 |
| 20260508133109 | 56 | 0 | 0.0 | 4.0 | 0.00 | 0.00 | 0.00 | 56 | 1015.9 |
| 20260508132843 | 56 | 308 | 1.0 | 4.0 | 0.00 | 0.00 | 0.00 | 58 | 1015.6 |
| 20260508132526 | 55 | 213 | 0.0 | 6.0 | 0.00 | 0.00 | 0.00 | 58 | 1016.0 |
| 20260508132327 | 56 | 231 | 0.0 | 6.0 | 0.00 | 0.00 | 0.00 | 59 | 1015.8 |
| 20260508132025 | 55 | 0 | 1.0 | 6.0 | 0.00 | 0.00 | 0.00 | 60 | 1016.1 |
| 20260508131834 | 55 | 248 | 1.0 | 6.0 | 0.00 | 0.00 | 0.00 | 60 | 1015.9 |
| 20260508131547 | 54 | 0 | 0.0 | 5.0 | 0.00 | 0.00 | 0.00 | 63 | 1016.1 |
| 20260508131318 | 55 | 296 | 0.0 | 5.0 | 0.00 | 0.00 | 0.00 | 66 | 1015.9 |
| 20260508131029 | 54 | 0 | 0.0 | 5.0 | 0.00 | 0.00 | 0.00 | 65 | 1016.3 |
| 20260508130821 | 54 | 203 | 1.0 | 5.0 | 0.00 | 0.00 | 0.00 | 62 | 1016.0 |
| 20260508130526 | 54 | 0 | 0.0 | 5.0 | 0.00 | 0.00 | 0.00 | 63 | 1016.3 |
| 20260508130326 | 54 | 286 | 0.0 | 2.0 | 0.00 | 0.00 | 0.00 | 69 | 1016.1 |
| 20260508130041 | 53 | 0 | 0.0 | 2.0 | 0.00 | 0.00 | 0.00 | 66 | 1016.3 |
| 20260508125830 | 53 | 310 | 0.0 | 2.0 | 0.00 | 0.00 | 0.00 | 68 | 1016.0 |
| 20260508125526 | 53 | 0 | 0.0 | 2.0 | 0.00 | 0.00 | 0.00 | 67 | 1016.3 |
| 20260508125334 | 53 | 303 | 0.0 | 2.0 | 0.00 | 0.00 | 0.00 | 66 | 1016.0 |
| 20260508125022 | 52 | 0 | 0.0 | 4.0 | 0.00 | 0.00 | 0.00 | 71 | 1016.2 |
| 20260508124838 | 52 | 4 | 0.0 | 4.0 | 0.00 | 0.00 | 0.00 | 68 | 1016.1 |
| 20260508124539 | 51 | 0 | 0.0 | 4.0 | 0.00 | 0.00 | 0.00 | 69 | 1016.4 |
| 20260508124324 | 51 | 194 | 0.0 | 4.0 | 0.00 | 0.00 | 0.00 | 70 | 1016.1 |
| 20260508124027 | 50 | 0 | 0.0 | 2.0 | 0.00 | 0.00 | 0.00 | 71 | 1016.3 |
| 20260508123829 | 50 | 193 | 0.0 | 2.0 | 0.00 | 0.00 | 0.00 | 77 | 1016.0 |
| 20260508123528 | 49 | 0 | 0.0 | 0.0 | 0.00 | 0.00 | 0.00 | 78 | 1016.2 |
| 20260508123354 | 49 | 194 | 0.0 | 0.0 | 0.00 | 0.00 | 0.00 | 81 | 1015.9 |
| 20260508123058 | 47 | 0 | 0.0 | 0.0 | 0.00 | 0.00 | 0.00 | 82 | 1016.1 |
| 20260508122837 | 47 | 242 | 0.0 | 0.0 | 0.00 | 0.00 | 0.00 | 84 | 1015.9 |
| 20260508122525 | 47 | 0 | 0.0 | 0.0 | 0.00 | 0.00 | 0.00 | 88 | 1016.1 |
| 20260508122328 | 47 | 241 | 0.0 | 0.0 | 0.00 | 0.00 | 0.00 | 89 | 1015.8 |
| 20260508122026 | 46 | 0 | 0.0 | 0.0 | 0.00 | 0.00 | 0.00 | 89 | 1016.1 |
| 20260508121815 | 46 | 241 | 0.0 | 0.0 | 0.00 | 0.00 | 0.00 | 91 | 1015.8 |
| 20260508121544 | 45 | 0 | 0.0 | 0.0 | 0.00 | 0.00 | 0.00 | 91 | 1016.0 |
| 20260508121320 | 45 | 241 | 0.0 | 0.0 | 0.00 | 0.00 | 0.00 | 92 | 1015.6 |
| 20260508121027 | 44 | 0 | 0.0 | 0.0 | 0.00 | 0.00 | 0.00 | 93 | 1016.0 |
| 20260508120824 | 45 | 241 | 0.0 | 0.0 | 0.00 | 0.00 | 0.00 | 93 | 1015.6 |
| 20260508120526 | 44 | 0 | 0.0 | 0.0 | 0.00 | 0.00 | 0.00 | 93 | 1016.0 |
| 20260508120328 | 44 | 242 | 0.0 | 0.0 | 0.00 | 0.00 | 0.00 | 94 | 1015.7 |
| 20260508120043 | 43 | 0 | 0.0 | 0.0 | 0.00 | 0.00 | 0.00 | 93 | 1015.9 |
| 20260508115832 | 43 | 188 | 0.0 | 0.0 | 0.00 | 0.00 | 0.00 | 94 | 1015.6 |
| 20260508115526 | 42 | 0 | 0.0 | 0.0 | 0.00 | 0.00 | 0.00 | 93 | 1016.0 |
| 20260508115319 | 43 | 188 | 0.0 | 0.0 | 0.00 | 0.00 | 0.00 | 94 | 1015.6 |
| 20260508115026 | 42 | 0 | 0.0 | 0.0 | 0.00 | 0.00 | 0.00 | 93 | 1015.8 |
| 20260508114823 | 42 | 188 | 0.0 | 0.0 | 0.00 | 0.00 | 0.00 | 94 | 1015.5 |
| 20260508114540 | 42 | 0 | 0.0 | 0.0 | 0.00 | 0.00 | 0.00 | 94 | 1015.8 |
| 20260508114328 | 42 | 188 | 0.0 | 0.0 | 0.00 | 0.00 | 0.00 | 94 | 1015.5 |
| 20260508114026 | 41 | 0 | 0.0 | 0.0 | 0.00 | 0.00 | 0.00 | 93 | 1015.8 |
| 20260508113832 | 42 | 188 | 0.0 | 0.0 | 0.00 | 0.00 | 0.00 | 94 | 1015.4 |
| 20260508113527 | 41 | 0 | 0.0 | 0.0 | 0.00 | 0.00 | 0.00 | 93 | 1015.7 |
| 20260508113323 | 41 | 188 | 0.0 | 0.0 | 0.00 | 0.00 | 0.00 | 94 | 1015.4 |
| 20260508113050 | 40 | 0 | 0.0 | 0.0 | 0.00 | 0.00 | 0.00 | 93 | 1015.7 |
| 20260508112848 | 41 | 188 | 0.0 | 0.0 | 0.00 | 0.00 | 0.00 | 94 | 1015.4 |
| 20260508112529 | 40 | 0 | 0.0 | 0.0 | 0.00 | 0.00 | 0.00 | 93 | 1015.6 |
| 20260508112334 | 40 | 188 | 0.0 | 0.0 | 0.00 | 0.00 | 0.00 | 94 | 1015.3 |
| 20260508112022 | 40 | 0 | 0.0 | 0.0 | 0.00 | 0.00 | 0.00 | 93 | 1015.5 |
| 20260508111818 | 40 | 188 | 0.0 | 0.0 | 0.00 | 0.00 | 0.00 | 93 | 1015.3 |
| 20260508111543 | 39 | 0 | 0.0 | 0.0 | 0.00 | 0.00 | 0.00 | 93 | 1015.5 |
| 20260508111322 | 40 | 188 | 0.0 | 0.0 | 0.00 | 0.00 | 0.00 | 93 | 1015.2 |
| 20260508111023 | 39 | 0 | 0.0 | 0.0 | 0.00 | 0.00 | 0.00 | 92 | 1015.3 |
| 20260508110826 | 40 | 188 | 327.0 | 0.0 | 0.00 | 0.00 | 0.00 | 93 | 1015.1 |
| 20260508110526 | 39 | 0 | 0.0 | 0.0 | 0.00 | 0.00 | 0.00 | 92 | 1015.2 |
| 20260508110313 | 39 | 0.0 | 0.0 | 0.00 | 0.00 | 0.00 | 93 | 1015.0 | |
| 20260508110053 | 39 | 0 | 0.0 | 0.0 | 0.00 | 0.00 | 0.00 | 92 | 1015.1 |
| 20260508105820 | 39 | 0.0 | 0.0 | 0.00 | 0.00 | 0.00 | 92 | 1014.9 | |
| 20260508105526 | 39 | 0 | 0.0 | 0.0 | 0.00 | 0.00 | 0.00 | 92 | 1015.1 |
| 20260508105326 | 39 | 0.0 | 0.0 | 0.00 | 0.00 | 0.00 | 92 | 1014.9 | |
| 20260508105026 | 39 | 0.0 | 0.0 | 0.00 | 0.00 | 0.00 | 91 | 1015.0 | |
| 20260508104834 | 39 | 0.0 | 0.0 | 0.00 | 0.00 | 0.00 | 92 | 1014.8 | |
| 20260508104539 | 39 | 0.0 | 0.0 | 0.00 | 0.00 | 0.00 | 91 | 1015.0 | |
| 20260508104319 | 39 | 0.0 | 0.0 | 0.00 | 0.00 | 0.00 | 92 | 1014.8 | |
| 20260508104025 | 39 | 0.0 | 0.0 | 0.00 | 0.00 | 0.00 | 91 | 1015.0 | |
| 20260508103831 | 39 | 0.0 | 0.0 | 0.00 | 0.00 | 0.00 | 91 | 1014.7 | |
| 20260508103526 | 39 | 0.0 | 0.0 | 0.00 | 0.00 | 0.00 | 91 | 1015.0 | |
| 20260508103336 | 39 | 0.0 | 0.0 | 0.00 | 0.00 | 0.00 | 91 | 1014.7 | |
| 20260508103041 | 39 | 0.0 | 0.0 | 0.00 | 0.00 | 0.00 | 90 | 1015.0 | |
| 20260508102823 | 39 | 0.0 | 0.0 | 0.00 | 0.00 | 0.00 | 91 | 1014.8 | |
| 20260508102526 | 39 | 0.0 | 0.0 | 0.00 | 0.00 | 0.00 | 91 | 1015.0 | |
| 20260508102330 | 39 | 0.0 | 0.0 | 0.00 | 0.00 | 0.00 | 91 | 1014.8 | |
| 20260508102027 | 39 | 0.0 | 0.0 | 0.00 | 0.00 | 0.00 | 91 | 1015.0 | |
| 20260508101838 | 39 | 0.0 | 0.0 | 0.00 | 0.00 | 0.00 | 91 | 1014.7 | |
| 20260508101538 | 39 | 0.0 | 0.0 | 0.00 | 0.00 | 0.00 | 90 | 1014.9 | |
| 20260508101324 | 40 | 0.0 | 0.0 | 0.00 | 0.00 | 0.00 | 91 | 1014.7 | |
| 20260508101026 | 39 | 0.0 | 0.0 | 0.00 | 0.00 | 0.00 | 90 | 1014.9 | |
| 20260508100832 | 40 | 0.0 | 0.0 | 0.00 | 0.00 | 0.00 | 91 | 1014.6 | |
| 20260508100526 | 39 | 0.0 | 0.0 | 0.00 | 0.00 | 0.00 | 90 | 1015.0 | |
| 20260508100326 | 40 | 0.0 | 0.0 | 0.00 | 0.00 | 0.00 | 91 | 1014.7 | |
| 20260508100037 | 39 | 0.0 | 0.0 | 0.00 | 0.00 | 0.00 | 90 | 1014.9 | |
| 20260508095832 | 40 | 0.0 | 0.0 | 0.00 | 0.00 | 0.00 | 91 | 1014.6 | |
| 20260508095526 | 39 | 0.0 | 0.0 | 0.00 | 0.00 | 0.00 | 90 | 1014.8 | |
| 20260508095317 | 40 | 0.0 | 0.0 | 0.00 | 0.00 | 0.00 | 91 | 1014.5 | |
| 20260508095025 | 40 | 0.0 | 0.0 | 0.00 | 0.00 | 0.00 | 90 | 1014.7 | |
| 20260508094821 | 40 | 0.0 | 0.0 | 0.00 | 0.00 | 0.00 | 90 | 1014.4 | |
| 20260508094537 | 40 | 0.0 | 0.0 | 0.00 | 0.00 | 0.00 | 90 | 1014.7 | |
| 20260508094346 | 40 | 0.0 | 0.0 | 0.00 | 0.00 | 0.00 | 90 | 1014.4 | |
| 20260508094025 | 40 | 0.0 | 0.0 | 0.00 | 0.00 | 0.00 | 90 | 1014.7 | |
| 20260508093816 | 40 | 0.0 | 0.0 | 0.00 | 0.00 | 0.00 | 90 | 1014.4 | |
| 20260508093526 | 40 | 0.0 | 0.0 | 0.00 | 0.00 | 0.00 | 89 | 1014.7 | |
| 20260508093324 | 41 | 0.0 | 0.0 | 0.00 | 0.00 | 0.00 | 90 | 1014.3 | |
| 20260508093044 | 40 | 0.0 | 0.0 | 0.00 | 0.00 | 0.00 | 89 | 1014.7 | |
| 20260508092829 | 41 | 0.0 | 0.0 | 0.00 | 0.00 | 0.00 | 89 | 1014.3 | |
| 20260508092527 | 40 | 0.0 | 0.0 | 0.00 | 0.00 | 0.00 | 89 | 1014.6 | |
| 20260508092332 | 41 | 0.0 | 0.0 | 0.00 | 0.00 | 0.00 | 89 | 1014.2 | |
| 20260508092026 | 40 | 0.0 | 0.0 | 0.00 | 0.00 | 0.00 | 89 | 1014.5 | |
| 20260508091816 | 41 | 0.0 | 0.0 | 0.00 | 0.00 | 0.00 | 89 | 1014.2 | |
| 20260508091551 | 41 | 0.0 | 0.0 | 0.00 | 0.00 | 0.00 | 88 | 1014.6 | |
| 20260508091321 | 41 | 0.0 | 0.0 | 0.00 | 0.00 | 0.00 | 89 | 1014.1 | |
| 20260508091026 | 41 | 0.0 | 0.0 | 0.00 | 0.00 | 0.00 | 88 | 1014.5 | |
| 20260508090825 | 41 | 0.0 | 0.0 | 0.00 | 0.00 | 0.00 | 89 | 1014.1 | |
| 20260508090526 | 41 | 0.0 | 0.0 | 0.00 | 0.00 | 0.00 | 88 | 1014.5 | |
| 20260508090333 | 41 | 0.0 | 0.0 | 0.00 | 0.00 | 0.00 | 89 | 1014.1 | |
| 20260508090057 | 41 | 0.0 | 0.0 | 0.00 | 0.00 | 0.00 | 88 | 1014.6 | |
| 20260508085817 | 42 | 0.0 | 0.0 | 0.00 | 0.00 | 0.00 | 89 | 1014.1 | |
| 20260508085525 | 41 | 0.0 | 0.0 | 0.00 | 0.00 | 0.00 | 88 | 1014.5 | |
| 20260508085342 | 42 | 0.0 | 0.0 | 0.00 | 0.00 | 0.00 | 89 | 1014.1 | |
| 20260508085025 | 41 | 0.0 | 0.0 | 0.00 | 0.00 | 0.00 | 89 | 1014.5 | |
| 20260508084825 | 42 | 0.0 | 0.0 | 0.00 | 0.00 | 0.00 | 89 | 1014.0 | |
| 20260508084539 | 41 | 0.0 | 0.0 | 0.00 | 0.00 | 0.00 | 89 | 1014.4 | |
| 20260508084317 | 42 | 0.0 | 0.0 | 0.00 | 0.00 | 0.00 | 89 | 1014.0 | |
| 20260508084028 | 41 | 0.0 | 0.0 | 0.00 | 0.00 | 0.00 | 88 | 1014.3 | |
| 20260508083824 | 42 | 0.0 | 0.0 | 0.00 | 0.00 | 0.00 | 89 | 1013.9 | |
| 20260508083525 | 41 | 0.0 | 0.0 | 0.00 | 0.00 | 0.00 | 88 | 1014.2 | |
| 20260508083332 | 42 | 0.0 | 0.0 | 0.00 | 0.00 | 0.00 | 89 | 1013.8 | |
| 20260508083040 | 42 | 0.0 | 0.0 | 0.00 | 0.00 | 0.00 | 88 | 1014.2 | |
| 20260508082819 | 42 | 0.0 | 0.0 | 0.00 | 0.00 | 0.00 | 89 | 1013.8 | |
| 20260508082529 | 42 | 0.0 | 0.0 | 0.00 | 0.00 | 0.00 | 88 | 1014.2 | |
| 20260508082323 | 42 | 0.0 | 0.0 | 0.00 | 0.00 | 0.00 | 89 | 1013.8 | |
| 20260508082028 | 42 | 0.0 | 0.0 | 0.00 | 0.00 | 0.00 | 89 | 1014.1 | |
| 20260508081827 | 42 | 0.0 | 0.0 | 0.00 | 0.00 | 0.00 | 89 | 1013.6 | |
| 20260508081543 | 42 | 0.0 | 0.0 | 0.00 | 0.00 | 0.00 | 89 | 1014.0 | |
| 20260508081314 | 42 | 0.0 | 0.0 | 0.00 | 0.00 | 0.00 | 89 | 1013.6 | |
| 20260508081030 | 42 | 0.0 | 0.0 | 0.00 | 0.00 | 0.00 | 89 | 1014.0 | |
| 20260508080823 | 42 | 0.0 | 0.0 | 0.00 | 0.00 | 0.00 | 90 | 1013.6 | |
| 20260508080529 | 42 | 0.0 | 0.0 | 0.00 | 0.00 | 0.00 | 90 | 1014.0 | |
| 20260508080330 | 42 | 0.0 | 0.0 | 0.00 | 0.00 | 0.00 | 90 | 1013.6 | |
| 20260508080039 | 42 | 0.0 | 0.0 | 0.00 | 0.00 | 0.00 | 90 | 1013.9 | |
| 20260508075817 | 43 | 0.0 | 0.0 | 0.00 | 0.00 | 0.00 | 91 | 1013.5 | |
| 20260508075527 | 42 | 0.0 | 0.0 | 0.00 | 0.00 | 0.00 | 90 | 1013.9 | |
| 20260508075326 | 43 | 0.0 | 0.0 | 0.00 | 0.00 | 0.00 | 91 | 1013.4 | |
| 20260508075027 | 42 | 0.0 | 0.0 | 0.00 | 0.00 | 0.00 | 90 | 1013.8 | |
| 20260508074833 | 43 | 0.0 | 0.0 | 0.00 | 0.00 | 0.00 | 91 | 1013.4 | |
| 20260508074543 | 42 | 0.0 | 0.0 | 0.00 | 0.00 | 0.00 | 90 | 1013.8 | |
| 20260508074317 | 43 | 0.0 | 0.0 | 0.00 | 0.00 | 0.00 | 91 | 1013.4 | |
| 20260508074026 | 42 | 0.0 | 0.0 | 0.00 | 0.00 | 0.00 | 90 | 1013.8 | |
| 20260508073845 | 43 | 0.0 | 0.0 | 0.00 | 0.00 | 0.00 | 91 | 1013.4 | |
| 20260508073527 | 42 | 0.0 | 0.0 | 0.00 | 0.00 | 0.00 | 90 | 1013.7 | |
| 20260508073332 | 43 | 0.0 | 0.0 | 0.00 | 0.00 | 0.00 | 91 | 1013.3 | |
| 20260508073037 | 42 | 0.0 | 0.0 | 0.00 | 0.00 | 0.00 | 91 | 1013.5 | |
| 20260508072819 | 43 | 0.0 | 0.0 | 0.00 | 0.00 | 0.00 | 91 | 1013.1 | |
| 20260508072527 | 42 | 0.0 | 0.0 | 0.00 | 0.00 | 0.00 | 91 | 1013.5 | |
| 20260508072327 | 43 | 0.0 | 0.0 | 0.00 | 0.00 | 0.00 | 92 | 1013.0 | |
| 20260508072029 | 42 | 0.0 | 0.0 | 0.00 | 0.00 | 0.00 | 91 | 1013.4 | |
| 20260508071814 | 43 | 0.0 | 0.0 | 0.00 | 0.00 | 0.00 | 92 | 1012.9 | |
| 20260508071547 | 43 | 0.0 | 0.0 | 0.00 | 0.00 | 0.00 | 91 | 1013.3 | |
| 20260508071321 | 43 | 0.0 | 0.0 | 0.00 | 0.00 | 0.00 | 92 | 1012.8 | |
| 20260508071028 | 43 | 0.0 | 0.0 | 0.00 | 0.00 | 0.00 | 92 | 1013.2 | |
| 20260508070825 | 43 | 0.0 | 0.0 | 0.00 | 0.00 | 0.00 | 92 | 1012.8 | |
| 20260508070525 | 43 | 0.0 | 0.0 | 0.00 | 0.00 | 0.00 | 92 | 1013.2 | |
| 20260508070317 | 43 | 0.0 | 0.0 | 0.00 | 0.00 | 0.00 | 92 | 1012.8 | |
| 20260508070040 | 43 | 0.0 | 0.0 | 0.00 | 0.00 | 0.00 | 92 | 1013.1 | |
| 20260508065825 | 43 | 0.0 | 0.0 | 0.00 | 0.00 | 0.00 | 92 | 1012.7 | |
| 20260508065526 | 43 | 0.0 | 0.0 | 0.00 | 0.00 | 0.00 | 92 | 1013.1 | |
| 20260508065025 | 43 | 0.0 | 0.0 | 0.00 | 0.00 | 0.00 | 92 | 1012.9 | |
| 20260508064827 | 43 | 0.0 | 0.0 | 0.00 | 0.00 | 0.00 | 92 | 1012.5 | |
| 20260508064539 | 43 | 0.0 | 0.0 | 0.00 | 0.00 | 0.00 | 92 | 1012.8 | |
| 20260508064331 | 43 | 0.0 | 0.0 | 0.00 | 0.00 | 0.00 | 92 | 1012.5 | |
| 20260508064026 | 43 | 0.0 | 0.0 | 0.00 | 0.00 | 0.00 | 92 | 1012.7 | |
| 20260508063818 | 43 | 0.0 | 0.0 | 0.00 | 0.00 | 0.00 | 92 | 1012.4 | |
| 20260508063526 | 43 | 0.0 | 0.0 | 0.00 | 0.00 | 0.00 | 91 | 1012.7 | |
| 20260508063322 | 43 | 0.0 | 0.0 | 0.00 | 0.00 | 0.00 | 92 | 1012.3 | |
| 20260508063043 | 43 | 0.0 | 0.0 | 0.00 | 0.00 | 0.00 | 91 | 1012.6 | |
| 20260508062827 | 43 | 0.0 | 0.0 | 0.00 | 0.00 | 0.00 | 92 | 1012.3 | |
| 20260508062525 | 43 | 0.0 | 0.0 | 0.00 | 0.00 | 0.00 | 91 | 1012.7 | |
| 20260508062332 | 43 | 0.0 | 0.0 | 0.00 | 0.00 | 0.00 | 92 | 1012.4 | |
| 20260508062025 | 43 | 0.0 | 0.0 | 0.00 | 0.00 | 0.00 | 91 | 1012.7 | |
| 20260508061545 | 43 | 0.0 | 0.0 | 0.00 | 0.00 | 0.00 | 91 | 1012.7 | |
| 20260508061330 | 44 | 0.0 | 0.0 | 0.00 | 0.00 | 0.00 | 92 | 1012.3 | |
| 20260508061026 | 43 | 0.0 | 0.0 | 0.00 | 0.00 | 0.00 | 91 | 1012.6 | |
| 20260508060835 | 44 | 0.0 | 0.0 | 0.00 | 0.00 | 0.00 | 92 | 1012.3 | |
| 20260508060526 | 43 | 0.0 | 0.0 | 0.00 | 0.00 | 0.00 | 91 | 1012.6 | |
| 20260508060319 | 44 | 0.0 | 0.0 | 0.00 | 0.00 | 0.00 | 91 | 1012.3 | |
| 20260508060042 | 43 | 0.0 | 0.0 | 0.00 | 0.00 | 0.00 | 91 | 1012.7 | |
| 20260508055822 | 44 | 0.0 | 0.0 | 0.00 | 0.03 | 0.00 | 91 | 1012.3 | |
| 20260508055526 | 43 | 0.0 | 0.0 | 0.00 | 0.02 | 0.00 | 91 | 1012.6 | |
| 20260508055314 | 44 | 0.0 | 0.0 | 0.00 | 0.03 | 0.00 | 91 | 1012.3 | |
| 20260508055026 | 43 | 0.0 | 0.0 | 0.00 | 0.02 | 0.00 | 91 | 1012.6 | |
| 20260508054822 | 44 | 0.0 | 0.0 | 0.00 | 0.03 | 0.00 | 91 | 1012.4 | |
| 20260508054539 | 44 | 0.0 | 0.0 | 0.00 | 0.02 | 0.00 | 90 | 1012.7 | |
| 20260508054329 | 44 | 0.0 | 0.0 | 0.00 | 0.03 | 0.00 | 91 | 1012.2 | |
| 20260508054026 | 44 | 0.0 | 0.0 | 0.00 | 0.02 | 0.00 | 90 | 1012.6 | |
| 20260508053837 | 44 | 0.0 | 0.0 | 0.00 | 0.03 | 0.00 | 91 | 1012.2 | |
| 20260508053527 | 44 | 0.0 | 0.0 | 0.00 | 0.02 | 0.00 | 90 | 1012.5 | |
| 20260508053323 | 44 | 0.0 | 0.0 | 0.00 | 0.03 | 0.00 | 90 | 1012.2 | |
| 20260508053100 | 44 | 0.0 | 0.0 | 0.00 | 0.02 | 0.00 | 90 | 1012.5 | |
| 20260508052830 | 44 | 0.0 | 0.0 | 0.00 | 0.03 | 0.00 | 90 | 1012.1 | |
| 20260508052526 | 44 | 0.0 | 0.0 | 0.00 | 0.02 | 0.00 | 90 | 1012.5 | |
| 20260508052337 | 45 | 0.0 | 0.0 | 0.00 | 0.03 | 0.00 | 90 | 1012.1 | |
| 20260508052027 | 44 | 0.0 | 0.0 | 0.00 | 0.02 | 0.00 | 90 | 1012.4 | |
| 20260508051824 | 45 | 0.0 | 0.0 | 0.00 | 0.03 | 0.00 | 90 | 1012.0 | |
| 20260508051541 | 44 | 0.0 | 0.0 | 0.00 | 0.02 | 0.00 | 90 | 1012.3 | |
| 20260508051352 | 45 | 0.0 | 0.0 | 0.00 | 0.03 | 0.00 | 90 | 1012.0 | |
| 20260508051026 | 44 | 0.0 | 0.0 | 0.00 | 0.02 | 0.00 | 90 | 1012.3 | |
| 20260508050815 | 45 | 0.0 | 0.0 | 0.00 | 0.03 | 0.00 | 90 | 1012.0 | |
| 20260508050526 | 45 | 0.0 | 0.0 | 0.00 | 0.02 | 0.00 | 90 | 1012.3 | |
| 20260508050343 | 45 | 0.0 | 0.0 | 0.00 | 0.03 | 0.00 | 90 | 1012.0 | |
| 20260508050044 | 45 | 0.0 | 0.0 | 0.00 | 0.02 | 0.00 | 89 | 1012.3 | |
| 20260508045829 | 45 | 0.0 | 0.0 | 0.00 | 0.17 | 0.00 | 90 | 1012.0 | |
| 20260508045528 | 45 | 0.0 | 0.0 | 0.00 | 0.17 | 0.00 | 89 | 1012.3 | |
| 20260508045337 | 45 | 0.0 | 0.0 | 0.00 | 0.17 | 0.00 | 90 | 1011.9 | |
| 20260508045025 | 45 | 0.0 | 0.0 | 0.00 | 0.17 | 0.00 | 89 | 1012.2 | |
| 20260508044822 | 46 | 0.0 | 0.0 | 0.00 | 0.17 | 0.00 | 89 | 1011.9 | |
| 20260508044544 | 45 | 0.0 | 0.0 | 0.00 | 0.17 | 0.00 | 89 | 1012.1 | |
| 20260508044334 | 46 | 0.0 | 0.0 | 0.00 | 0.17 | 0.00 | 89 | 1011.8 | |
| 20260508044029 | 45 | 0.0 | 0.0 | 0.00 | 0.17 | 0.00 | 89 | 1012.1 | |
| 20260508043820 | 46 | 0.0 | 0.0 | 0.00 | 0.17 | 0.00 | 89 | 1011.8 | |
| 20260508043526 | 45 | 0.0 | 0.0 | 0.00 | 0.17 | 0.00 | 88 | 1012.1 | |
| 20260508043327 | 46 | 0.0 | 0.0 | 0.00 | 0.17 | 0.00 | 89 | 1011.7 | |
| 20260508043041 | 46 | 0.0 | 0.0 | 0.00 | 0.17 | 0.00 | 88 | 1012.0 | |
| 20260508042832 | 46 | 0.0 | 0.0 | 0.00 | 0.17 | 0.00 | 89 | 1011.7 | |
| 20260508042526 | 46 | 0.0 | 0.0 | 0.00 | 0.17 | 0.00 | 88 | 1012.0 | |
| 20260508042336 | 46 | 0.0 | 0.0 | 0.00 | 0.17 | 0.00 | 88 | 1011.7 | |
| 20260508042026 | 46 | 0.0 | 0.0 | 0.00 | 0.17 | 0.00 | 88 | 1012.0 | |
| 20260508041820 | 47 | 0.0 | 0.0 | 0.00 | 0.17 | 0.00 | 88 | 1011.6 | |
| 20260508041604 | 46 | 0.0 | 0.0 | 0.00 | 0.17 | 0.00 | 88 | 1011.9 | |
| 20260508041327 | 47 | 0.0 | 0.0 | 0.00 | 0.17 | 0.00 | 88 | 1011.6 | |
| 20260508041026 | 46 | 0.0 | 0.0 | 0.00 | 0.17 | 0.00 | 88 | 1011.9 | |
| 20260508040814 | 47 | 0.0 | 0.0 | 0.00 | 0.17 | 0.00 | 88 | 1011.4 | |
| 20260508040526 | 46 | 0.0 | 0.0 | 0.00 | 0.17 | 0.00 | 87 | 1011.9 | |
| 20260508040321 | 47 | 0.0 | 0.0 | 0.00 | 0.17 | 0.00 | 88 | 1011.5 | |
| 20260508040046 | 47 | 0.0 | 0.0 | 0.00 | 0.17 | 0.00 | 87 | 1011.8 | |
| 20260508035825 | 47 | 0.0 | 0.0 | 0.00 | 0.17 | 0.17 | 87 | 1011.3 | |
| 20260508035529 | 47 | 0.0 | 0.0 | 0.00 | 0.17 | 0.17 | 87 | 1011.7 | |
| 20260508035313 | 47 | 0.0 | 0.0 | 0.00 | 0.17 | 0.17 | 87 | 1011.3 | |
| 20260508035030 | 47 | 0.0 | 0.0 | 0.00 | 0.17 | 0.17 | 86 | 1011.6 | |
| 20260508034823 | 48 | 0.0 | 0.0 | 0.00 | 0.17 | 0.17 | 87 | 1011.4 | |
| 20260508034544 | 47 | 0.0 | 0.0 | 0.00 | 0.17 | 0.17 | 86 | 1011.8 | |
| 20260508034332 | 48 | 0.0 | 0.0 | 0.00 | 0.17 | 0.17 | 86 | 1011.3 | |
| 20260508034025 | 47 | 0.0 | 0.0 | 0.00 | 0.17 | 0.17 | 86 | 1011.7 | |
| 20260508033837 | 48 | 0.0 | 0.0 | 0.00 | 0.17 | 0.17 | 86 | 1011.3 | |
| 20260508033525 | 48 | 0.0 | 0.0 | 0.00 | 0.17 | 0.17 | 86 | 1011.7 | |
| 20260508033321 | 48 | 0.0 | 0.0 | 0.00 | 0.17 | 0.17 | 86 | 1011.3 | |
| 20260508033044 | 48 | 0.0 | 0.0 | 0.00 | 0.17 | 0.17 | 85 | 1011.6 | |
| 20260508032826 | 49 | 0.0 | 0.0 | 0.00 | 0.17 | 0.17 | 85 | 1011.3 | |
| 20260508032526 | 48 | 0.0 | 0.0 | 0.00 | 0.17 | 0.17 | 84 | 1011.6 | |
| 20260508032334 | 49 | 0.0 | 0.0 | 0.00 | 0.17 | 0.17 | 85 | 1011.3 | |
| 20260508032026 | 48 | 0.0 | 0.0 | 0.00 | 0.17 | 0.17 | 84 | 1011.6 | |
| 20260508031839 | 49 | 0.0 | 0.0 | 0.00 | 0.17 | 0.17 | 84 | 1011.3 | |
| 20260508031543 | 49 | 0.0 | 0.0 | 0.00 | 0.17 | 0.17 | 84 | 1011.5 | |
| 20260508031322 | 49 | 0.0 | 0.0 | 0.00 | 0.17 | 0.17 | 84 | 1011.2 | |
| 20260508031025 | 49 | 0.0 | 0.0 | 0.00 | 0.17 | 0.17 | 83 | 1011.6 | |
| 20260508030829 | 49 | 0.0 | 0.0 | 0.00 | 0.17 | 0.17 | 83 | 1011.2 | |
| 20260508030528 | 49 | 0.0 | 0.0 | 0.00 | 0.17 | 0.17 | 83 | 1011.5 | |
| 20260508030315 | 50 | 0.0 | 0.0 | 0.00 | 0.17 | 0.17 | 83 | 1011.3 | |
| 20260508030041 | 49 | 0.0 | 0.0 | 0.00 | 0.17 | 0.17 | 82 | 1011.5 | |
| 20260508025823 | 50 | 0.0 | 0.0 | 0.00 | 0.17 | 0.17 | 82 | 1011.3 | |
| 20260508025527 | 50 | 0.0 | 0.0 | 0.00 | 0.17 | 0.17 | 82 | 1011.5 | |
| 20260508025314 | 50 | 0.0 | 0.0 | 0.00 | 0.17 | 0.17 | 82 | 1011.1 | |
| 20260508025024 | 50 | 0.0 | 0.0 | 0.00 | 0.17 | 0.17 | 81 | 1011.4 | |
| 20260508024842 | 50 | 0.0 | 0.0 | 0.00 | 0.17 | 0.17 | 81 | 1011.1 | |
| 20260508024541 | 50 | 0.0 | 0.0 | 0.00 | 0.17 | 0.17 | 80 | 1011.4 | |
| 20260508024325 | 51 | 0.0 | 0.0 | 0.00 | 0.17 | 0.17 | 81 | 1011.1 | |
| 20260508024026 | 50 | 0.0 | 0.0 | 0.00 | 0.17 | 0.17 | 80 | 1011.4 | |
| 20260508023528 | 50 | 0.0 | 0.0 | 0.00 | 0.17 | 0.17 | 79 | 1011.4 | |
| 20260508023324 | 51 | 0.0 | 0.0 | 0.00 | 0.17 | 0.17 | 80 | 1011.1 | |
| 20260508023037 | 51 | 0.0 | 0.0 | 0.00 | 0.17 | 0.17 | 79 | 1011.4 | |
| 20260508022830 | 51 | 0.0 | 0.0 | 0.00 | 0.17 | 0.17 | 79 | 1011.1 | |
| 20260508022525 | 51 | 0.0 | 0.0 | 0.00 | 0.17 | 0.17 | 79 | 1011.4 | |
| 20260508022356 | 51 | 0.0 | 0.0 | 0.00 | 0.17 | 0.17 | 79 | 1011.1 | |
| 20260508022027 | 51 | 0.0 | 0.0 | 0.00 | 0.17 | 0.17 | 78 | 1011.3 | |
| 20260508021818 | 52 | 0.0 | 0.0 | 0.00 | 0.17 | 0.17 | 78 | 1011.1 | |
| 20260508021539 | 51 | 0.0 | 0.0 | 0.00 | 0.17 | 0.17 | 78 | 1011.4 | |
| 20260508021326 | 52 | 0.0 | 0.0 | 0.00 | 0.17 | 0.17 | 78 | 1011.0 | |
| 20260508021025 | 51 | 0.0 | 0.0 | 0.00 | 0.17 | 0.17 | 78 | 1011.4 | |
| 20260508020831 | 52 | 0.0 | 0.0 | 0.00 | 0.17 | 0.17 | 77 | 1011.0 | |
| 20260508020525 | 52 | 0.0 | 0.0 | 0.00 | 0.17 | 0.17 | 77 | 1011.3 | |
| 20260508020338 | 52 | 0.0 | 0.0 | 0.00 | 0.17 | 0.17 | 77 | 1011.0 | |
| 20260508020048 | 52 | 0.0 | 0.0 | 0.00 | 0.17 | 0.17 | 77 | 1011.2 | |
| 20260508015825 | 52 | 0.0 | 0.0 | 0.00 | 0.17 | 0.17 | 77 | 1010.9 | |
| 20260508015525 | 52 | 0.0 | 0.0 | 0.00 | 0.17 | 0.17 | 76 | 1011.2 | |
| 20260508015330 | 53 | 0.0 | 0.0 | 0.00 | 0.17 | 0.17 | 76 | 1010.8 | |
| 20260508015026 | 52 | 0.0 | 0.0 | 0.00 | 0.17 | 0.17 | 76 | 1011.2 | |
| 20260508014834 | 53 | 0.0 | 0.0 | 0.00 | 0.17 | 0.17 | 76 | 1010.8 | |
| 20260508014546 | 52 | 0.0 | 0.0 | 0.00 | 0.17 | 0.17 | 75 | 1011.2 | |
| 20260508014318 | 53 | 0.0 | 0.0 | 0.00 | 0.17 | 0.17 | 75 | 1010.9 | |
| 20260508014027 | 52 | 0.0 | 0.0 | 0.00 | 0.17 | 0.17 | 75 | 1011.2 | |
| 20260508013825 | 53 | 0.0 | 0.0 | 0.00 | 0.17 | 0.17 | 74 | 1010.7 | |
| 20260508013530 | 53 | 0.0 | 0.0 | 0.00 | 0.17 | 0.17 | 73 | 1011.1 | |
| 20260508013330 | 53 | 0.0 | 0.0 | 0.00 | 0.17 | 0.17 | 73 | 1010.8 | |
| 20260508013041 | 53 | 0.0 | 0.0 | 0.00 | 0.17 | 0.17 | 73 | 1011.1 | |
| 20260508012836 | 54 | 0.0 | 0.0 | 0.00 | 0.17 | 0.17 | 73 | 1010.7 | |
| 20260508012526 | 53 | 0.0 | 0.0 | 0.00 | 0.17 | 0.17 | 73 | 1011.0 | |
| 20260508012322 | 54 | 0.0 | 0.0 | 0.00 | 0.17 | 0.17 | 73 | 1010.6 | |
| 20260508012026 | 53 | 0.0 | 0.0 | 0.00 | 0.17 | 0.17 | 72 | 1010.9 | |
| 20260508011826 | 54 | 0.0 | 0.0 | 0.00 | 0.17 | 0.17 | 73 | 1010.6 | |
| 20260508011549 | 53 | 0.0 | 0.0 | 0.00 | 0.17 | 0.17 | 72 | 1011.0 | |
| 20260508011331 | 54 | 0.0 | 0.0 | 0.00 | 0.17 | 0.17 | 72 | 1010.6 | |
| 20260508011026 | 54 | 0.0 | 0.0 | 0.00 | 0.17 | 0.17 | 72 | 1010.9 | |
| 20260508010818 | 54 | 0.0 | 0.0 | 0.00 | 0.17 | 0.17 | 72 | 1010.5 | |
| 20260508010526 | 54 | 0.0 | 0.0 | 0.00 | 0.17 | 0.17 | 72 | 1010.8 | |
| 20260508010325 | 54 | 0.0 | 0.0 | 0.00 | 0.17 | 0.17 | 73 | 1010.4 | |
| 20260508010038 | 54 | 0.0 | 0.0 | 0.00 | 0.17 | 0.17 | 72 | 1010.8 | |
| 20260508005813 | 54 | 0.0 | 0.0 | 0.00 | 0.17 | 0.17 | 72 | 1010.3 | |
| 20260508005525 | 54 | 0.0 | 0.0 | 0.00 | 0.17 | 0.17 | 71 | 1010.7 | |
| 20260508005321 | 54 | 0.0 | 0.0 | 0.00 | 0.17 | 0.17 | 72 | 1010.3 | |
| 20260508005028 | 54 | 0.0 | 0.0 | 0.00 | 0.17 | 0.17 | 71 | 1010.6 | |
| 20260508004828 | 55 | 0.0 | 0.0 | 0.00 | 0.17 | 0.17 | 71 | 1010.2 | |
| 20260508004537 | 54 | 0.0 | 0.0 | 0.00 | 0.17 | 0.17 | 71 | 1010.5 | |
| 20260508004318 | 55 | 0.0 | 0.0 | 0.00 | 0.17 | 0.17 | 71 | 1010.1 | |
| 20260508004026 | 55 | 0.0 | 0.0 | 0.00 | 0.17 | 0.17 | 70 | 1010.5 | |
| 20260508003525 | 55 | 0.0 | 0.0 | 0.00 | 0.17 | 0.17 | 70 | 1010.4 | |
| 20260508003044 | 55 | 0.0 | 0.0 | 0.00 | 0.17 | 0.17 | 69 | 1010.3 | |
| 20260508002526 | 55 | 0.0 | 0.0 | 0.00 | 0.17 | 0.17 | 69 | 1010.2 | |
| 20260508002026 | 55 | 0.0 | 0.0 | 0.00 | 0.17 | 0.17 | 68 | 1010.1 | |
| 20260508001540 | 56 | 0.0 | 0.0 | 0.00 | 0.17 | 0.17 | 68 | 1010.1 | |
| 20260508001026 | 56 | 0.0 | 0.0 | 0.00 | 0.17 | 0.17 | 67 | 1010.1 | |
| 20260508000526 | 56 | 0.0 | 0.0 | 0.00 | 0.17 | 0.17 | 68 | 1010.0 | |
| 20260508000039 | 56 | 0.0 | 0.0 | 0.00 | 0.17 | 0.17 | 67 | 1009.9 | |
| 20260507235526 | 57 | 0.0 | 0.0 | 0.00 | 0.17 | 0.17 | 67 | 1009.8 | |
| 20260507235026 | 57 | 0.0 | 0.0 | 0.00 | 0.17 | 0.17 | 66 | 1009.7 | |
| 20260507234539 | 57 | 0.0 | 0.0 | 0.00 | 0.17 | 0.17 | 65 | 1009.8 | |
| 20260507234026 | 57 | 0 | 0.0 | 3.0 | 0.00 | 0.17 | 0.17 | 64 | 1009.6 |
| 20260507233526 | 58 | 0 | 0.0 | 3.0 | 0.00 | 0.17 | 0.17 | 64 | 1009.6 |
| 20260507233054 | 58 | 0 | 0.0 | 3.0 | 0.00 | 0.17 | 0.17 | 64 | 1009.5 |
| 20260507232525 | 58 | 0 | 0.0 | 3.0 | 0.00 | 0.17 | 0.17 | 64 | 1009.5 |
| 20260507232025 | 58 | 0 | 0.0 | 5.0 | 0.00 | 0.17 | 0.17 | 62 | 1009.4 |
| 20260507231539 | 58 | 0 | 0.0 | 7.0 | 0.00 | 0.17 | 0.17 | 62 | 1009.4 |
| 20260507231025 | 58 | 0 | 0.0 | 7.0 | 0.00 | 0.17 | 0.17 | 61 | 1009.3 |
| 20260507230526 | 58 | 202 | 0.0 | 7.0 | 0.00 | 0.17 | 0.17 | 62 | 1009.2 |
| 20260507230043 | 58 | 0 | 1.0 | 7.0 | 0.00 | 0.17 | 0.17 | 61 | 1009.2 |
| 20260507225527 | 58 | 199 | 0.0 | 8.0 | 0.00 | 0.17 | 0.17 | 61 | 1009.1 |
| 20260507225029 | 59 | 0 | 0.0 | 8.0 | 0.00 | 0.17 | 0.17 | 60 | 1009.0 |
| 20260507224541 | 59 | 0 | 1.0 | 9.0 | 0.00 | 0.17 | 0.17 | 60 | 1009.1 |
| 20260507224026 | 59 | 0 | 0.0 | 9.0 | 0.00 | 0.17 | 0.17 | 59 | 1008.8 |
| 20260507223529 | 59 | 174 | 0.0 | 5.0 | 0.00 | 0.17 | 0.17 | 59 | 1008.9 |
| 20260507223040 | 59 | 0 | 0.0 | 8.0 | 0.00 | 0.17 | 0.17 | 60 | 1008.8 |
| 20260507222528 | 60 | 0 | 0.0 | 8.0 | 0.00 | 0.17 | 0.17 | 59 | 1008.7 |
| 20260507222026 | 60 | 155 | 0.0 | 8.0 | 0.00 | 0.17 | 0.17 | 61 | 1008.6 |
| 20260507221538 | 60 | 0 | 1.0 | 7.0 | 0.00 | 0.17 | 0.17 | 60 | 1008.7 |
| 20260507221026 | 60 | 0 | 0.0 | 9.0 | 0.00 | 0.17 | 0.17 | 59 | 1008.8 |
| 20260507220528 | 60 | 0 | 0.0 | 9.0 | 0.00 | 0.17 | 0.17 | 60 | 1008.7 |
| 20260507220038 | 60 | 216 | 0.0 | 9.0 | 0.00 | 0.17 | 0.17 | 60 | 1008.7 |
| 20260507215529 | 61 | 0 | 2.0 | 8.0 | 0.00 | 0.17 | 0.17 | 58 | 1008.5 |
| 20260507215026 | 61 | 0 | 0.0 | 7.0 | 0.00 | 0.17 | 0.17 | 57 | 1008.5 |
| 20260507214537 | 61 | 0 | 1.0 | 7.0 | 0.00 | 0.17 | 0.17 | 57 | 1008.6 |
| 20260507214028 | 62 | 0 | 0.0 | 6.0 | 0.00 | 0.17 | 0.17 | 55 | 1008.4 |
| 20260507213526 | 63 | 0 | 0.0 | 4.0 | 0.00 | 0.17 | 0.17 | 54 | 1008.5 |
| 20260507213343 | 63 | 250 | 1.0 | 4.0 | 0.00 | 0.17 | 0.17 | 54 | 1008.2 |
| 20260507213051 | 63 | 0 | 0.0 | 5.0 | 0.00 | 0.17 | 0.17 | 52 | 1008.5 |
| 20260507212914 | 64 | 250 | 0.0 | 5.0 | 0.00 | 0.17 | 0.17 | 51 | 1008.1 |
| 20260507212526 | 64 | 0 | 0.0 | 5.0 | 0.00 | 0.17 | 0.17 | 42 | 1008.6 |
| 20260507212351 | 64 | 252 | 1.0 | 5.0 | 0.00 | 0.17 | 0.17 | 43 | 1008.1 |
| 20260507212026 | 64 | 220 | 0.0 | 9.0 | 0.00 | 0.17 | 0.17 | 43 | 1008.6 |
| 20260507211832 | 65 | 243 | 0.0 | 6.0 | 0.00 | 0.17 | 0.17 | 42 | 1008.1 |
| 20260507211542 | 64 | 0 | 1.0 | 9.0 | 0.00 | 0.17 | 0.17 | 41 | 1008.6 |
| 20260507211347 | 65 | 242 | 0.0 | 8.0 | 0.00 | 0.17 | 0.17 | 45 | 1008.2 |
| 20260507211030 | 64 | 0 | 1.0 | 9.0 | 0.00 | 0.17 | 0.17 | 41 | 1008.6 |
| 20260507210842 | 65 | 13 | 1.0 | 7.0 | 0.00 | 0.17 | 0.17 | 44 | 1008.2 |
| 20260507210528 | 64 | 0 | 1.0 | 7.0 | 0.00 | 0.17 | 0.17 | 43 | 1008.7 |
| 20260507210339 | 65 | 14 | 1.0 | 7.0 | 0.00 | 0.17 | 0.17 | 43 | 1008.2 |
| 20260507210047 | 64 | 0 | 0.0 | 6.0 | 0.00 | 0.17 | 0.17 | 42 | 1008.7 |
| 20260507205833 | 65 | 165 | 0.0 | 5.0 | 0.00 | 0.17 | 0.17 | 43 | 1008.3 |
| 20260507205526 | 64 | 34 | 0.0 | 5.0 | 0.00 | 0.17 | 0.17 | 43 | 1008.7 |
| 20260507205351 | 65 | 36 | 1.0 | 5.0 | 0.00 | 0.17 | 0.17 | 44 | 1008.2 |
| 20260507205026 | 64 | 0 | 0.0 | 3.0 | 0.00 | 0.17 | 0.17 | 42 | 1008.5 |
| 20260507204904 | 65 | 185 | 0.0 | 3.0 | 0.00 | 0.17 | 0.17 | 42 | 1008.2 |
| 20260507204538 | 64 | 0 | 0.0 | 3.0 | 0.00 | 0.17 | 0.17 | 42 | 1008.7 |
| 20260507204343 | 65 | 98 | 0.0 | 0.0 | 0.00 | 0.17 | 0.17 | 41 | 1008.2 |
| 20260507204027 | 64 | 0 | 0.0 | 3.0 | 0.00 | 0.17 | 0.17 | 42 | 1008.5 |
| 20260507203840 | 64 | 100 | 0.0 | 1.0 | 0.00 | 0.17 | 0.17 | 42 | 1008.1 |
| 20260507203526 | 64 | 0 | 0.0 | 4.0 | 0.00 | 0.17 | 0.17 | 42 | 1008.6 |
| 20260507203335 | 64 | 254 | 0.0 | 5.0 | 0.00 | 0.17 | 0.17 | 40 | 1008.1 |
| 20260507203045 | 64 | 0 | 0.0 | 4.0 | 0.00 | 0.17 | 0.17 | 46 | 1008.7 |